| time (UTC) | temp C | wind direction | speed KPH | gust KPH | rain 1hr cm | rain 24hr cm | rain mn cm | humidity % | barometer mb |
| 20260906220709 | 22 | 10 | 0.0 | 1.6 | 0.00 | 0.00 | 0.00 | 74 | 1019.2 |
| 20260906220204 | 22 | 4 | 1.6 | 3.2 | 0.00 | 0.00 | 0.00 | 73 | 1019.1 |
| 20260906215703 | 22 | 8 | 1.6 | 4.8 | 0.00 | 0.00 | 0.00 | 71 | 1019.1 |
| 20260906215202 | 23 | 16 | 1.6 | 3.2 | 0.00 | 0.00 | 0.00 | 70 | 1019.1 |
| 20260906214701 | 22 | 23 | 1.6 | 1.6 | 0.00 | 0.00 | 0.00 | 72 | 1018.9 |
| 20260906214156 | 22 | 25 | 1.6 | 1.6 | 0.00 | 0.00 | 0.00 | 73 | 1019.0 |
| 20260906213650 | 22 | 1 | 1.6 | 4.8 | 0.00 | 0.00 | 0.00 | 73 | 1019.1 |
| 20260906213150 | 22 | 5 | 0.0 | 1.6 | 0.00 | 0.00 | 0.00 | 73 | 1018.8 |
| 20260906212647 | 23 | 8 | 3.2 | 4.8 | 0.00 | 0.00 | 0.00 | 71 | 1018.9 |
| 20260906212143 | 23 | 11 | 1.6 | 3.2 | 0.00 | 0.00 | 0.00 | 71 | 1018.9 |
| 20260906211643 | 24 | 51 | 4.8 | 6.4 | 0.00 | 0.00 | 0.00 | 69 | 1018.6 |
| 20260906211138 | 23 | 23 | 0.0 | 1.6 | 0.00 | 0.00 | 0.00 | 70 | 1018.8 |
| 20260906210634 | 22 | 15 | 1.6 | 3.2 | 0.00 | 0.00 | 0.00 | 73 | 1018.9 |
| 20260906210128 | 22 | 0 | 0.0 | 3.2 | 0.00 | 0.00 | 0.00 | 73 | 1019.0 |
| 20260906205623 | 22 | 345 | 6.4 | 9.7 | 0.00 | 0.00 | 0.00 | 73 | 1018.9 |
| 20260906205120 | 22 | 30 | 1.6 | 3.2 | 0.00 | 0.00 | 0.00 | 73 | 1018.6 |
| 20260906204619 | 23 | 27 | 6.4 | 16.1 | 0.00 | 0.00 | 0.00 | 72 | 1018.8 |
| 20260906204114 | 24 | 4 | 1.6 | 14.5 | 0.00 | 0.00 | 0.00 | 69 | 1018.7 |
| 20260906203614 | 25 | 8 | 1.6 | 6.4 | 0.00 | 0.00 | 0.00 | 64 | 1018.5 |
| 20260906203108 | 24 | 316 | 6.4 | 6.4 | 0.00 | 0.00 | 0.00 | 64 | 1018.6 |
| 20260906202605 | 24 | 9 | 0.0 | 4.8 | 0.00 | 0.00 | 0.00 | 66 | 1018.7 |
| 20260906202105 | 24 | 298 | 8.0 | 9.7 | 0.00 | 0.00 | 0.00 | 64 | 1018.9 |
| 20260906201559 | 23 | 7 | 3.2 | 6.4 | 0.00 | 0.00 | 0.00 | 66 | 1018.7 |
| 20260906201059 | 23 | 30 | 6.4 | 6.4 | 0.00 | 0.00 | 0.00 | 67 | 1019.1 |
| 20260906200555 | 23 | 23 | 0.0 | 1.6 | 0.00 | 0.00 | 0.00 | 70 | 1019.0 |
| 20260906200051 | 23 | 348 | 0.0 | 3.2 | 0.00 | 0.00 | 0.00 | 68 | 1018.7 |
| 20260906195546 | 23 | 21 | 0.0 | 1.6 | 0.00 | 0.00 | 0.00 | 68 | 1018.8 |
| 20260906195042 | 23 | 29 | 1.6 | 4.8 | 0.00 | 0.00 | 0.00 | 71 | 1018.8 |
| 20260906194538 | 24 | 358 | 6.4 | 11.3 | 0.00 | 0.00 | 0.00 | 68 | 1019.1 |
| 20260906194034 | 25 | 12 | 3.2 | 3.2 | 0.00 | 0.00 | 0.00 | 68 | 1019.0 |
| 20260906193533 | 24 | 261 | 3.2 | 9.7 | 0.00 | 0.00 | 0.00 | 66 | 1019.0 |
| 20260906193029 | 23 | 14 | 0.0 | 3.2 | 0.00 | 0.00 | 0.00 | 70 | 1018.9 |
| 20260906192524 | 23 | 348 | 3.2 | 6.4 | 0.00 | 0.00 | 0.00 | 69 | 1019.0 |
| 20260906192023 | 23 | 14 | 3.2 | 4.8 | 0.00 | 0.00 | 0.00 | 72 | 1018.9 |
| 20260906191518 | 23 | 331 | 3.2 | 9.7 | 0.00 | 0.00 | 0.00 | 72 | 1019.1 |
| 20260906191017 | 24 | 29 | 1.6 | 6.4 | 0.00 | 0.00 | 0.00 | 71 | 1019.0 |
| 20260906190517 | 23 | 33 | 0.0 | 4.8 | 0.00 | 0.00 | 0.00 | 70 | 1019.0 |
| 20260906190012 | 23 | 269 | 1.6 | 6.4 | 0.00 | 0.00 | 0.00 | 76 | 1019.0 |
| 20260906185511 | 23 | 20 | 3.2 | 3.2 | 0.00 | 0.00 | 0.00 | 74 | 1019.1 |
| 20260906185010 | 24 | 14 | 3.2 | 6.4 | 0.00 | 0.00 | 0.00 | 72 | 1019.0 |
| 20260906184505 | 23 | 331 | 3.2 | 6.4 | 0.00 | 0.00 | 0.00 | 72 | 1019.0 |
| 20260906184000 | 23 | 18 | 1.6 | 3.2 | 0.00 | 0.00 | 0.00 | 72 | 1019.1 |
| 20260906183456 | 23 | 5 | 1.6 | 6.4 | 0.00 | 0.00 | 0.00 | 74 | 1019.3 |
| 20260906182952 | 24 | 22 | 4.8 | 4.8 | 0.00 | 0.00 | 0.00 | 72 | 1019.2 |
| 20260906182447 | 24 | 336 | 3.2 | 4.8 | 0.00 | 0.00 | 0.00 | 72 | 1019.1 |
| 20260906181943 | 23 | 285 | 0.0 | 3.2 | 0.00 | 0.00 | 0.00 | 73 | 1019.2 |
| 20260906181438 | 23 | 351 | 0.0 | 4.8 | 0.00 | 0.00 | 0.00 | 74 | 1019.3 |
| 20260906180934 | 23 | 27 | 0.0 | 3.2 | 0.00 | 0.00 | 0.00 | 74 | 1019.5 |
| 20260906180429 | 22 | 11 | 4.8 | 6.4 | 0.00 | 0.00 | 0.00 | 75 | 1019.5 |
| 20260906175926 | 22 | 26 | 0.0 | 4.8 | 0.00 | 0.00 | 0.00 | 80 | 1019.6 |
| 20260906175422 | 22 | 26 | 1.6 | 1.6 | 0.00 | 0.00 | 0.00 | 78 | 1019.4 |
| 20260906174920 | 22 | 4 | 0.0 | 0.0 | 0.00 | 0.00 | 0.00 | 79 | 1019.6 |
| 20260906174419 | 22 | 15 | 1.6 | 6.4 | 0.00 | 0.00 | 0.00 | 79 | 1019.7 |
| 20260906173915 | 22 | 17 | 0.0 | 1.6 | 0.00 | 0.00 | 0.00 | 77 | 1019.7 |
| 20260906173410 | 23 | 330 | 4.8 | 9.7 | 0.00 | 0.00 | 0.00 | 75 | 1019.7 |
| 20260906172909 | 22 | 280 | 4.8 | 4.8 | 0.00 | 0.00 | 0.00 | 79 | 1019.6 |
| 20260906172406 | 22 | 339 | 0.0 | 1.6 | 0.00 | 0.00 | 0.00 | 81 | 1019.8 |
| 20260906171902 | 21 | 296 | 1.6 | 3.2 | 0.00 | 0.00 | 0.00 | 80 | 1019.7 |
| 20260906171355 | 21 | 1 | 0.0 | 0.0 | 0.00 | 0.00 | 0.00 | 82 | 1019.7 |
| 20260906170851 | 21 | 25 | 0.0 | 0.0 | 0.00 | 0.00 | 0.00 | 83 | 1019.9 |
| 20260906170347 | 21 | 56 | 3.2 | 4.8 | 0.00 | 0.00 | 0.00 | 83 | 1020.1 |
| 20260906165843 | 21 | 339 | 0.0 | 6.4 | 0.00 | 0.00 | 0.00 | 82 | 1019.9 |
| 20260906165342 | 21 | 359 | 0.0 | 0.0 | 0.00 | 0.00 | 0.00 | 83 | 1019.9 |
| 20260906164837 | 21 | 9 | 0.0 | 1.6 | 0.00 | 0.00 | 0.00 | 84 | 1020.1 |
| 20260906164336 | 20 | 4 | 0.0 | 1.6 | 0.00 | 0.00 | 0.00 | 85 | 1020.1 |
| 20260906163832 | 20 | 26 | 4.8 | 4.8 | 0.00 | 0.00 | 0.00 | 84 | 1020.1 |
| 20260906163329 | 20 | 22 | 1.6 | 1.6 | 0.00 | 0.00 | 0.00 | 86 | 1020.0 |
| 20260906162826 | 20 | 47 | 4.8 | 6.4 | 0.00 | 0.00 | 0.00 | 87 | 1020.0 |
| 20260906162325 | 20 | 24 | 1.6 | 1.6 | 0.00 | 0.00 | 0.00 | 86 | 1020.0 |
| 20260906161820 | 20 | 27 | 1.6 | 3.2 | 0.00 | 0.00 | 0.00 | 86 | 1020.3 |
| 20260906161320 | 20 | 335 | 1.6 | 3.2 | 0.00 | 0.00 | 0.00 | 86 | 1020.4 |
| 20260906160818 | 20 | 20 | 0.0 | 3.2 | 0.00 | 0.00 | 0.00 | 87 | 1020.5 |
| 20260906160313 | 20 | 19 | 1.6 | 4.8 | 0.00 | 0.00 | 0.00 | 88 | 1020.4 |
| 20260906155810 | 20 | 10 | 1.6 | 3.2 | 0.00 | 0.00 | 0.00 | 88 | 1020.3 |
| 20260906155300 | 19 | 24 | 1.6 | 3.2 | 0.00 | 0.00 | 0.00 | 90 | 1020.6 |
| 20260906154755 | 19 | 21 | 1.6 | 3.2 | 0.00 | 0.00 | 0.00 | 90 | 1020.4 |
| 20260906154250 | 19 | 24 | 1.6 | 3.2 | 0.00 | 0.00 | 0.00 | 90 | 1020.4 |
| 20260906153748 | 18 | 41 | 1.6 | 3.2 | 0.00 | 0.00 | 0.00 | 91 | 1020.4 |
| 20260906153243 | 18 | 18 | 3.2 | 4.8 | 0.00 | 0.00 | 0.00 | 91 | 1020.5 |
| 20260906152738 | 18 | 34 | 3.2 | 3.2 | 0.00 | 0.00 | 0.00 | 92 | 1020.5 |
| 20260906152233 | 18 | 19 | 3.2 | 4.8 | 0.00 | 0.00 | 0.00 | 91 | 1020.4 |
| 20260906151732 | 18 | 12 | 3.2 | 4.8 | 0.00 | 0.00 | 0.00 | 92 | 1020.5 |
| 20260906151228 | 18 | 17 | 3.2 | 4.8 | 0.00 | 0.00 | 0.00 | 92 | 1020.5 |
| 20260906150723 | 18 | 14 | 1.6 | 3.2 | 0.00 | 0.00 | 0.00 | 93 | 1020.6 |
| 20260906150218 | 18 | 4 | 3.2 | 9.7 | 0.00 | 0.00 | 0.00 | 93 | 1020.6 |
| 20260906145717 | 18 | 15 | 3.2 | 4.8 | 0.00 | 0.00 | 0.00 | 93 | 1020.4 |
| 20260906145212 | 18 | 35 | 4.8 | 11.3 | 0.00 | 0.00 | 0.00 | 93 | 1020.3 |
| 20260906144712 | 18 | 25 | 8.0 | 9.7 | 0.00 | 0.00 | 0.00 | 93 | 1020.3 |
| 20260906144207 | 18 | 40 | 4.8 | 4.8 | 0.00 | 0.00 | 0.00 | 94 | 1020.3 |
| 20260906143706 | 18 | 18 | 3.2 | 4.8 | 0.00 | 0.00 | 0.00 | 93 | 1020.1 |
| 20260906143204 | 18 | 25 | 3.2 | 4.8 | 0.00 | 0.00 | 0.00 | 94 | 1020.0 |
| 20260906142703 | 18 | 33 | 3.2 | 4.8 | 0.00 | 0.00 | 0.00 | 94 | 1020.0 |
| 20260906142159 | 18 | 14 | 3.2 | 4.8 | 0.00 | 0.00 | 0.00 | 95 | 1019.9 |
| 20260906141657 | 18 | 16 | 3.2 | 3.2 | 0.00 | 0.00 | 0.00 | 95 | 1019.8 |
| 20260906141152 | 18 | 18 | 3.2 | 4.8 | 0.00 | 0.00 | 0.00 | 95 | 1019.8 |
| 20260906140651 | 18 | 25 | 1.6 | 3.2 | 0.00 | 0.00 | 0.00 | 95 | 1019.9 |
| 20260906140146 | 18 | 14 | 3.2 | 3.2 | 0.00 | 0.00 | 0.00 | 95 | 1019.8 |
| 20260906135643 | 18 | 2 | 1.6 | 3.2 | 0.00 | 0.00 | 0.00 | 96 | 1019.8 |
| 20260906135139 | 18 | 17 | 3.2 | 4.8 | 0.00 | 0.00 | 0.00 | 96 | 1019.6 |
| 20260906134635 | 18 | 31 | 6.4 | 6.4 | 0.00 | 0.00 | 0.00 | 97 | 1019.6 |
| 20260906134130 | 18 | 12 | 1.6 | 4.8 | 0.00 | 0.00 | 0.00 | 98 | 1019.7 |
| 20260906133626 | 18 | 31 | 3.2 | 4.8 | 0.00 | 0.00 | 0.00 | 98 | 1019.7 |
| 20260906133120 | 17 | 53 | 0.0 | 3.2 | 0.00 | 0.00 | 0.00 | 99 | 1019.7 |
| 20260906132615 | 17 | 34 | 3.2 | 3.2 | 0.00 | 0.00 | 0.00 | 99 | 1019.7 |
| 20260906132111 | 17 | 13 | 3.2 | 4.8 | 0.00 | 0.00 | 0.00 | 99 | 1019.7 |
| 20260906131607 | 18 | 26 | 3.2 | 9.7 | 0.00 | 0.00 | 0.00 | 99 | 1019.5 |
| 20260906131102 | 18 | 10 | 1.6 | 4.8 | 0.00 | 0.00 | 0.00 | 99 | 1019.5 |
| 20260906130601 | 18 | 19 | 3.2 | 6.4 | 0.00 | 0.00 | 0.00 | 99 | 1019.6 |
| 20260906130057 | 18 | 24 | 3.2 | 4.8 | 0.00 | 0.00 | 0.00 | 99 | 1019.6 |
| 20260906125555 | 18 | 8 | 1.6 | 4.8 | 0.00 | 0.00 | 0.00 | 99 | 1019.3 |
| 20260906125054 | 18 | 19 | 3.2 | 3.2 | 0.00 | 0.00 | 0.00 | 99 | 1019.6 |
| 20260906124550 | 18 | 13 | 1.6 | 3.2 | 0.00 | 0.00 | 0.00 | 99 | 1019.4 |
| 20260906124044 | 18 | 20 | 3.2 | 4.8 | 0.00 | 0.00 | 0.00 | 99 | 1019.4 |
| 20260906123544 | 18 | 36 | 3.2 | 3.2 | 0.00 | 0.00 | 0.00 | 99 | 1019.2 |
| 20260906123040 | 18 | 17 | 1.6 | 1.6 | 0.00 | 0.00 | 0.00 | 99 | 1019.3 |
| 20260906122538 | 18 | 9 | 0.0 | 3.2 | 0.00 | 0.00 | 0.00 | 99 | 1019.2 |
| 20260906122035 | 18 | 24 | 0.0 | 1.6 | 0.00 | 0.00 | 0.00 | 99 | 1019.1 |
| 20260906121525 | 18 | 30 | 1.6 | 6.4 | 0.00 | 0.00 | 0.00 | 99 | 1019.0 |
| 20260906121021 | 18 | 57 | 1.6 | 4.8 | 0.00 | 0.00 | 0.00 | 99 | 1019.1 |
| 20260906120521 | 18 | 17 | 1.6 | 3.2 | 0.00 | 0.00 | 0.00 | 99 | 1018.9 |
| 20260906120019 | 18 | 0 | 0.0 | 1.6 | 0.00 | 0.00 | 0.00 | 99 | 1019.0 |
| 20260906115514 | 18 | 7 | 1.6 | 1.6 | 0.00 | 0.00 | 0.00 | 99 | 1018.8 |
| 20260906115013 | 18 | 20 | 0.0 | 3.2 | 0.00 | 0.00 | 0.00 | 99 | 1018.9 |
| 20260906114508 | 18 | 351 | 0.0 | 0.0 | 0.00 | 0.00 | 0.00 | 99 | 1018.8 |
| 20260906114004 | 18 | 31 | 0.0 | 1.6 | 0.00 | 0.00 | 0.00 | 99 | 1018.6 |
| 20260906113502 | 18 | 45 | 3.2 | 4.8 | 0.00 | 0.00 | 0.00 | 99 | 1018.6 |
| 20260906112958 | 18 | 26 | 1.6 | 6.4 | 0.00 | 0.00 | 0.00 | 99 | 1018.8 |
| 20260906112453 | 18 | 11 | 0.0 | 0.0 | 0.00 | 0.00 | 0.00 | 99 | 1018.5 |
| 20260906111949 | 18 | 26 | 0.0 | 0.0 | 0.00 | 0.00 | 0.00 | 99 | 1018.5 |
| 20260906111448 | 18 | 44 | 0.0 | 0.0 | 0.00 | 0.00 | 0.00 | 99 | 1018.3 |
| 20260906110943 | 18 | 22 | 0.0 | 0.0 | 0.00 | 0.00 | 0.00 | 99 | 1018.3 |
| 20260906110438 | 18 | 37 | 0.0 | 0.0 | 0.00 | 0.00 | 0.00 | 99 | 1018.5 |
| 20260906105937 | 18 | 37 | 0.0 | 0.0 | 0.00 | 0.00 | 0.00 | 99 | 1018.2 |
| 20260906105433 | 18 | 28 | 0.0 | 0.0 | 0.00 | 0.00 | 0.00 | 99 | 1018.2 |
| 20260906104929 | 18 | 43 | 0.0 | 0.0 | 0.00 | 0.00 | 0.00 | 99 | 1018.1 |
| 20260906104428 | 18 | 32 | 0.0 | 0.0 | 0.00 | 0.00 | 0.00 | 99 | 1018.0 |
| 20260906103927 | 18 | 13 | 0.0 | 0.0 | 0.00 | 0.00 | 0.00 | 99 | 1018.0 |
| 20260906103425 | 18 | 8 | 0.0 | 0.0 | 0.00 | 0.00 | 0.00 | 99 | 1018.0 |
| 20260906102921 | 18 | 8 | 0.0 | 0.0 | 0.00 | 0.00 | 0.00 | 99 | 1018.0 |
| 20260906102420 | 18 | 347 | 0.0 | 0.0 | 0.00 | 0.00 | 0.00 | 99 | 1017.8 |
| 20260906101915 | 18 | 32 | 0.0 | 0.0 | 0.00 | 0.00 | 0.00 | 99 | 1017.9 |
| 20260906101410 | 18 | 29 | 0.0 | 0.0 | 0.00 | 0.00 | 0.00 | 99 | 1017.9 |
| 20260906100906 | 18 | 18 | 0.0 | 0.0 | 0.00 | 0.00 | 0.00 | 99 | 1017.7 |
| 20260906100405 | 18 | 22 | 0.0 | 0.0 | 0.00 | 0.00 | 0.00 | 99 | 1018.0 |
| 20260906095900 | 18 | 30 | 0.0 | 0.0 | 0.00 | 0.00 | 0.00 | 99 | 1017.9 |
| 20260906095356 | 18 | 23 | 0.0 | 0.0 | 0.00 | 0.00 | 0.00 | 99 | 1017.7 |
| 20260906094855 | 18 | 20 | 0.0 | 0.0 | 0.00 | 0.00 | 0.00 | 99 | 1017.7 |
| 20260906094351 | 18 | 25 | 0.0 | 0.0 | 0.00 | 0.00 | 0.00 | 99 | 1017.8 |
| 20260906093847 | 18 | 23 | 0.0 | 0.0 | 0.00 | 0.00 | 0.00 | 99 | 1017.6 |
| 20260906093343 | 18 | 13 | 0.0 | 0.0 | 0.00 | 0.00 | 0.00 | 99 | 1017.6 |
| 20260906092842 | 18 | 16 | 0.0 | 0.0 | 0.00 | 0.00 | 0.00 | 99 | 1017.7 |
| 20260906092337 | 18 | 15 | 0.0 | 0.0 | 0.00 | 0.00 | 0.00 | 99 | 1017.8 |
| 20260906091833 | 18 | 31 | 0.0 | 0.0 | 0.00 | 0.00 | 0.00 | 99 | 1017.6 |
| 20260906091329 | 18 | 31 | 0.0 | 0.0 | 0.00 | 0.00 | 0.00 | 99 | 1017.7 |
| 20260906090825 | 18 | 31 | 0.0 | 0.0 | 0.00 | 0.00 | 0.00 | 99 | 1017.6 |
| 20260906090324 | 18 | 17 | 0.0 | 0.0 | 0.00 | 0.00 | 0.00 | 99 | 1017.6 |
| 20260906085819 | 18 | 16 | 0.0 | 0.0 | 0.00 | 0.00 | 0.00 | 99 | 1017.5 |
| 20260906085317 | 18 | 16 | 0.0 | 0.0 | 0.00 | 0.00 | 0.00 | 99 | 1017.3 |
| 20260906084812 | 18 | 16 | 0.0 | 0.0 | 0.00 | 0.00 | 0.00 | 99 | 1017.5 |
| 20260906084312 | 18 | 15 | 0.0 | 0.0 | 0.00 | 0.00 | 0.00 | 99 | 1017.4 |
| 20260906083801 | 18 | 17 | 0.0 | 0.0 | 0.00 | 0.00 | 0.00 | 99 | 1017.3 |
| 20260906083256 | 18 | 20 | 0.0 | 0.0 | 0.00 | 0.00 | 0.00 | 99 | 1017.4 |
| 20260906082751 | 18 | 20 | 0.0 | 0.0 | 0.00 | 0.00 | 0.00 | 99 | 1017.5 |
| 20260906082246 | 18 | 19 | 0.0 | 0.0 | 0.00 | 0.00 | 0.00 | 99 | 1017.4 |
| 20260906081743 | 18 | 35 | 0.0 | 0.0 | 0.00 | 0.00 | 0.00 | 99 | 1017.4 |
| 20260906081237 | 18 | 40 | 0.0 | 0.0 | 0.00 | 0.00 | 0.00 | 99 | 1017.4 |
| 20260906080734 | 18 | 303 | 0.0 | 0.0 | 0.00 | 0.00 | 0.00 | 99 | 1017.4 |
| 20260906080230 | 18 | 302 | 0.0 | 0.0 | 0.00 | 0.00 | 0.00 | 99 | 1017.4 |
| 20260906075724 | 18 | 301 | 0.0 | 0.0 | 0.00 | 0.00 | 0.00 | 99 | 1017.4 |
| 20260906075223 | 18 | 300 | 0.0 | 0.0 | 0.00 | 0.00 | 0.00 | 99 | 1017.4 |
| 20260906074719 | 18 | 335 | 0.0 | 0.0 | 0.00 | 0.00 | 0.00 | 99 | 1017.3 |
| 20260906074213 | 18 | 335 | 0.0 | 0.0 | 0.00 | 0.00 | 0.00 | 99 | 1017.3 |
| 20260906073708 | 18 | 335 | 0.0 | 0.0 | 0.00 | 0.00 | 0.00 | 99 | 1017.2 |
| 20260906073203 | 18 | 335 | 0.0 | 0.0 | 0.00 | 0.00 | 0.00 | 99 | 1017.4 |
| 20260906072658 | 18 | 339 | 0.0 | 0.0 | 0.00 | 0.00 | 0.00 | 99 | 1017.5 |
| 20260906072154 | 18 | 354 | 0.0 | 0.0 | 0.00 | 0.00 | 0.00 | 99 | 1017.3 |
| 20260906071650 | 18 | 354 | 0.0 | 0.0 | 0.00 | 0.00 | 0.00 | 99 | 1017.2 |
| 20260906071149 | 18 | 3 | 0.0 | 0.0 | 0.00 | 0.00 | 0.00 | 99 | 1017.4 |
| 20260906070646 | 18 | 2 | 0.0 | 0.0 | 0.00 | 0.00 | 0.00 | 99 | 1017.3 |
| 20260906070142 | 18 | 356 | 0.0 | 0.0 | 0.00 | 0.00 | 0.00 | 99 | 1017.3 |
| 20260906065641 | 19 | 0 | 0.0 | 0.0 | 0.00 | 0.00 | 0.00 | 99 | 1017.4 |
| 20260906065136 | 19 | 2 | 0.0 | 0.0 | 0.00 | 0.00 | 0.00 | 99 | 1017.5 |
| 20260906064632 | 19 | 2 | 0.0 | 0.0 | 0.00 | 0.00 | 0.00 | 99 | 1017.3 |
| 20260906064126 | 19 | 2 | 0.0 | 0.0 | 0.00 | 0.00 | 0.00 | 99 | 1017.4 |
| 20260906063622 | 19 | 352 | 0.0 | 0.0 | 0.00 | 0.00 | 0.00 | 99 | 1017.3 |
| 20260906063117 | 19 | 273 | 0.0 | 0.0 | 0.00 | 0.00 | 0.00 | 99 | 1017.4 |
| 20260906062613 | 19 | 271 | 0.0 | 0.0 | 0.00 | 0.00 | 0.00 | 99 | 1017.4 |
| 20260906062112 | 19 | 271 | 0.0 | 0.0 | 0.00 | 0.00 | 0.00 | 99 | 1017.5 |
| 20260906061608 | 19 | 271 | 0.0 | 0.0 | 0.00 | 0.00 | 0.00 | 99 | 1017.5 |
| 20260906061108 | 19 | 275 | 0.0 | 0.0 | 0.00 | 0.00 | 0.00 | 99 | 1017.6 |
| 20260906060604 | 19 | 275 | 0.0 | 0.0 | 0.00 | 0.00 | 0.00 | 99 | 1017.4 |
| 20260906055557 | 19 | 273 | 0.0 | 0.0 | 0.00 | 0.00 | 0.00 | 99 | 1017.5 |
| 20260906055052 | 19 | 49 | 0.0 | 0.0 | 0.00 | 0.00 | 0.00 | 99 | 1017.7 |
| 20260906054547 | 19 | 47 | 0.0 | 0.0 | 0.00 | 0.00 | 0.00 | 99 | 1017.6 |
| 20260906054042 | 19 | 351 | 0.0 | 0.0 | 0.00 | 0.00 | 0.00 | 99 | 1017.6 |
| 20260906053538 | 19 | 350 | 0.0 | 0.0 | 0.00 | 0.00 | 0.00 | 99 | 1017.4 |
| 20260906053034 | 19 | 265 | 0.0 | 0.0 | 0.00 | 0.00 | 0.00 | 99 | 1017.5 |
| 20260906052529 | 19 | 154 | 0.0 | 0.0 | 0.00 | 0.00 | 0.00 | 99 | 1017.3 |
| 20260906052026 | 19 | 154 | 0.0 | 0.0 | 0.00 | 0.00 | 0.00 | 99 | 1017.2 |
| 20260906051522 | 19 | 154 | 0.0 | 0.0 | 0.00 | 0.00 | 0.00 | 99 | 1017.5 |
| 20260906051017 | 19 | 156 | 0.0 | 0.0 | 0.00 | 0.00 | 0.00 | 99 | 1017.4 |
| 20260906050512 | 19 | 156 | 0.0 | 0.0 | 0.00 | 0.00 | 0.00 | 99 | 1017.6 |
| 20260906050007 | 19 | 156 | 0.0 | 0.0 | 0.00 | 0.00 | 0.00 | 99 | 1017.5 |
| 20260906045504 | 19 | 156 | 0.0 | 0.0 | 0.00 | 0.00 | 0.00 | 99 | 1017.4 |
| 20260906044955 | 19 | 156 | 0.0 | 0.0 | 0.00 | 0.00 | 0.00 | 99 | 1017.4 |
| 20260906044450 | 19 | 162 | 0.0 | 0.0 | 0.00 | 0.00 | 0.00 | 99 | 1017.5 |
| 20260906043946 | 19 | 162 | 0.0 | 0.0 | 0.00 | 0.00 | 0.00 | 99 | 1017.6 |
| 20260906043441 | 19 | 162 | 0.0 | 0.0 | 0.00 | 0.00 | 0.00 | 99 | 1017.5 |
| 20260906042937 | 19 | 149 | 0.0 | 0.0 | 0.00 | 0.00 | 0.00 | 99 | 1017.5 |
| 20260906042436 | 19 | 132 | 0.0 | 0.0 | 0.00 | 0.00 | 0.00 | 99 | 1017.6 |
| 20260906041930 | 19 | 143 | 0.0 | 0.0 | 0.00 | 0.00 | 0.00 | 99 | 1017.7 |
| 20260906041427 | 19 | 164 | 0.0 | 0.0 | 0.00 | 0.00 | 0.00 | 99 | 1017.4 |
| 20260906040927 | 19 | 181 | 0.0 | 0.0 | 0.00 | 0.00 | 0.00 | 99 | 1017.5 |
| 20260906040422 | 19 | 181 | 0.0 | 0.0 | 0.00 | 0.00 | 0.00 | 99 | 1017.4 |
| 20260906035917 | 19 | 151 | 0.0 | 0.0 | 0.00 | 1.32 | 1.32 | 99 | 1017.5 |
| 20260906035412 | 20 | 140 | 0.0 | 0.0 | 0.00 | 1.32 | 1.32 | 99 | 1017.7 |
| 20260906034908 | 20 | 140 | 0.0 | 0.0 | 0.00 | 1.32 | 1.32 | 99 | 1017.7 |
| 20260906034402 | 20 | 151 | 0.0 | 0.0 | 0.00 | 1.32 | 1.32 | 99 | 1017.8 |
| 20260906033858 | 20 | 181 | 0.0 | 0.0 | 0.00 | 1.32 | 1.32 | 99 | 1017.9 |
| 20260906033357 | 20 | 181 | 0.0 | 0.0 | 0.00 | 1.32 | 1.32 | 99 | 1017.8 |
| 20260906032854 | 20 | 181 | 0.0 | 0.0 | 0.00 | 1.32 | 1.32 | 99 | 1017.9 |
| 20260906032350 | 20 | 245 | 0.0 | 0.0 | 0.00 | 1.32 | 1.32 | 99 | 1017.9 |
| 20260906031844 | 20 | 171 | 0.0 | 0.0 | 0.00 | 1.32 | 1.32 | 99 | 1018.0 |
| 20260906031340 | 20 | 148 | 0.0 | 0.0 | 0.00 | 1.32 | 1.32 | 99 | 1017.8 |
| 20260906030840 | 20 | 148 | 0.0 | 0.0 | 0.00 | 1.32 | 1.32 | 99 | 1017.9 |
| 20260906030335 | 20 | 148 | 0.0 | 0.0 | 0.00 | 1.32 | 1.32 | 99 | 1017.9 |
| 20260906025834 | 20 | 148 | 0.0 | 0.0 | 0.00 | 1.32 | 1.32 | 99 | 1017.9 |
| 20260906025329 | 20 | 148 | 0.0 | 0.0 | 0.00 | 1.32 | 1.32 | 99 | 1018.1 |
| 20260906024827 | 20 | 148 | 0.0 | 0.0 | 0.00 | 1.32 | 1.32 | 99 | 1018.2 |
| 20260906024326 | 20 | 148 | 0.0 | 0.0 | 0.00 | 1.32 | 1.32 | 99 | 1018.2 |
| 20260906023823 | 20 | 187 | 0.0 | 0.0 | 0.00 | 1.32 | 1.32 | 99 | 1018.2 |
| 20260906023318 | 20 | 224 | 0.0 | 0.0 | 0.00 | 1.32 | 1.32 | 99 | 1018.0 |
| 20260906022813 | 20 | 224 | 0.0 | 0.0 | 0.00 | 1.32 | 1.32 | 99 | 1017.8 |
| 20260906022308 | 20 | 208 | 0.0 | 0.0 | 0.00 | 1.32 | 1.32 | 99 | 1017.9 |
| 20260906021804 | 20 | 200 | 0.0 | 0.0 | 0.00 | 1.32 | 1.32 | 99 | 1018.1 |
| 20260906021303 | 20 | 139 | 0.0 | 0.0 | 0.00 | 1.32 | 1.32 | 99 | 1017.9 |
| 20260906020758 | 20 | 98 | 0.0 | 0.0 | 0.00 | 1.32 | 1.32 | 99 | 1017.9 |
| 20260906020253 | 20 | 65 | 0.0 | 0.0 | 0.00 | 1.32 | 1.32 | 99 | 1017.8 |
| 20260906015752 | 20 | 47 | 0.0 | 0.0 | 0.00 | 1.32 | 1.32 | 99 | 1017.7 |
| 20260906015250 | 20 | 329 | 0.0 | 0.0 | 0.00 | 1.32 | 1.32 | 99 | 1017.6 |
| 20260906014745 | 20 | 63 | 0.0 | 0.0 | 0.00 | 1.32 | 1.32 | 99 | 1017.4 |
| 20260906014241 | 20 | 273 | 0.0 | 0.0 | 0.00 | 1.32 | 1.32 | 99 | 1017.5 |
| 20260906013738 | 20 | 260 | 0.0 | 0.0 | 0.18 | 1.32 | 1.32 | 99 | 1017.3 |
| 20260906013237 | 20 | 193 | 0.0 | 3.2 | 0.18 | 1.32 | 1.32 | 99 | 1017.0 |
| 20260906012732 | 20 | 243 | 0.0 | 0.0 | 0.30 | 1.30 | 1.30 | 99 | 1017.0 |
| 20260906012228 | 20 | 141 | 0.0 | 0.0 | 0.30 | 1.30 | 1.30 | 99 | 1017.0 |
| 20260906011723 | 20 | 48 | 0.0 | 0.0 | 0.00 | 1.24 | 1.24 | 99 | 1017.3 |
| 20260906011222 | 20 | 222 | 0.0 | 0.0 | 0.00 | 1.24 | 1.24 | 99 | 1017.2 |
| 20260906010719 | 20 | 222 | 0.0 | 0.0 | 0.00 | 1.24 | 1.24 | 99 | 1017.1 |
| 20260906010215 | 20 | 190 | 0.0 | 0.0 | 0.00 | 1.24 | 1.24 | 99 | 1017.0 |
| 20260906005715 | 20 | 214 | 0.0 | 0.0 | 0.00 | 1.24 | 1.24 | 99 | 1016.7 |
| 20260906005214 | 20 | 217 | 0.0 | 0.0 | 0.00 | 1.24 | 1.24 | 99 | 1017.0 |
| 20260906004713 | 20 | 121 | 0.0 | 0.0 | 0.00 | 1.24 | 1.24 | 99 | 1016.7 |
| 20260906004208 | 20 | 114 | 0.0 | 0.0 | 0.00 | 1.24 | 1.24 | 99 | 1016.9 |
| 20260906003703 | 20 | 117 | 0.0 | 0.0 | 0.00 | 1.24 | 1.24 | 99 | 1016.8 |
| 20260906003159 | 20 | 117 | 0.0 | 0.0 | 0.00 | 1.24 | 1.24 | 99 | 1016.8 |
| 20260906002659 | 20 | 108 | 0.0 | 0.0 | 0.00 | 1.24 | 1.24 | 99 | 1016.8 |
| 20260906002154 | 20 | 107 | 0.0 | 0.0 | 0.00 | 1.24 | 1.24 | 99 | 1016.8 |
| 20260906001649 | 20 | 106 | 0.0 | 0.0 | 0.00 | 1.24 | 1.24 | 99 | 1016.5 |
| 20260906001143 | 20 | 130 | 0.0 | 0.0 | 0.00 | 1.24 | 1.24 | 99 | 1016.8 |
| 20260906000639 | 20 | 136 | 0.0 | 0.0 | 0.00 | 1.24 | 1.24 | 99 | 1016.9 |
| 20260906000134 | 20 | 137 | 0.0 | 0.0 | 0.00 | 1.24 | 1.24 | 99 | 1016.3 |
| 20260905235633 | 20 | 136 | 0.0 | 0.0 | 0.00 | 1.24 | 1.24 | 99 | 1016.5 |
| 20260905235128 | 20 | 131 | 0.0 | 0.0 | 0.00 | 1.24 | 1.24 | 99 | 1016.7 |
| 20260905234624 | 20 | 132 | 0.0 | 0.0 | 0.00 | 1.24 | 1.24 | 99 | 1016.7 |
| 20260905234119 | 20 | 179 | 0.0 | 1.6 | 0.00 | 1.24 | 1.24 | 99 | 1016.7 |
| 20260905233614 | 20 | 160 | 0.0 | 0.0 | 0.00 | 1.24 | 1.24 | 99 | 1016.7 |
| 20260905233113 | 20 | 115 | 1.6 | 3.2 | 0.00 | 1.24 | 1.24 | 99 | 1016.4 |
| 20260905232609 | 20 | 99 | 0.0 | 1.6 | 0.00 | 1.24 | 1.24 | 99 | 1016.8 |
| 20260905232105 | 20 | 66 | 0.0 | 0.0 | 0.00 | 1.24 | 1.24 | 99 | 1016.8 |
| 20260905231559 | 20 | 11 | 0.0 | 0.0 | 0.00 | 1.24 | 1.24 | 99 | 1016.9 |
| 20260905231056 | 20 | 19 | 0.0 | 3.2 | 0.61 | 1.24 | 1.24 | 99 | 1016.8 |
| 20260905230556 | 21 | 119 | 1.6 | 4.8 | 1.68 | 1.22 | 1.22 | 98 | 1016.7 |
| 20260905230054 | 21 | 132 | 1.6 | 4.8 | 1.55 | 1.12 | 1.12 | 96 | 1016.8 |
| 20260905225549 | 21 | 8 | 1.6 | 4.8 | 0.79 | 0.94 | 0.94 | 92 | 1016.7 |
| 20260905225044 | 22 | 336 | 0.0 | 1.6 | 0.48 | 0.84 | 0.84 | 92 | 1016.5 |
| 20260905224543 | 22 | 81 | 6.4 | 6.4 | 0.18 | 0.79 | 0.79 | 89 | 1016.5 |
| 20260905224043 | 23 | 41 | 0.0 | 0.0 | 0.00 | 0.76 | 0.76 | 83 | 1016.2 |
| 20260905223541 | 24 | 76 | 0.0 | 0.0 | 0.00 | 0.76 | 0.76 | 83 | 1016.1 |
| 20260905223037 | 24 | 74 | 0.0 | 0.0 | 0.00 | 0.76 | 0.76 | 79 | 1016.1 |
| 20260905222536 | 25 | 122 | 0.0 | 1.6 | 0.00 | 0.76 | 0.76 | 79 | 1016.2 |
| 20260905222032 | 25 | 52 | 0.0 | 3.2 | 0.00 | 0.76 | 0.76 | 76 | 1016.0 |
| 20260905221528 | 25 | 66 | 0.0 | 0.0 | 0.00 | 0.76 | 0.76 | 77 | 1016.1 |
| 20260905221024 | 26 | 102 | 0.0 | 1.6 | 0.00 | 0.76 | 0.76 | 75 | 1015.9 |